[[{"header":{"parameterUnit":"m.s-1","parameterCategory":1,"la1":30.2991,"la2":30.254,"lo1":-89.0895,"lo2":-89.0444,"dy":0.0017,"dx":0.0017,"nx":28,"ny":28,"refTime":"2025-12-12T09:00:00:Z","depth":0,"parameterNumber":2,"parameterNumberName":"U-component_of_WINDS"},"data":[0,0,0,0,0,0,0,0,0,0,0,0,0,0,0,0,0,0,0,0,0,0,0,0,0,0,0,0,0,0,0,0,0,0,0,0,0,0,0,0,0,0,0,0,0,0,0,0,0,0,0,0,0,0,0,0,0,0,-2.4341,-2.4341,0,-2.4407,-2.4407,-2.4408,-2.4399,-2.4398,-2.4397,-2.4396,-2.4462,-2.4465,-2.4468,0,0,0,0,0,0,0,0,0,0,0,0,0,-2.4204,-2.4206,-2.4341,-2.4341,-2.4342,-2.4406,-2.4407,-2.4408,-2.4399,-2.4398,-2.4396,-2.4395,-2.4461,-2.4464,-2.4468,0,0,0,0,0,0,0,0,0,0,0,0,0,-2.4266,-2.4207,-2.434,-2.4345,-2.4347,-2.4406,-2.4407,-2.4409,-2.4399,-2.4398,-2.4396,-2.4395,-2.446,-2.4464,-2.4468,-2.4527,0,0,-2.4481,-2.4483,0,0,0,0,0,0,0,0,-2.4262,-2.4271,-2.4344,-2.4345,-2.4347,-2.4393,-2.4383,-2.4448,-2.44,-2.4379,-2.4396,-2.4394,-2.444,-2.4446,-2.4462,-2.453,-2.4533,-2.4481,-2.4484,-2.4486,-2.4487,0,0,0,0,0,0,0,-2.4258,-2.4268,-2.4367,-2.4345,-2.4347,-2.4343,-2.435,-2.4396,-2.4418,-2.4381,-2.438,-2.4388,-2.4441,-2.4458,-2.4463,-2.4534,-2.4481,-2.4485,-2.4488,-2.4489,-2.465,-2.4651,0,0,0,0,0,0,-2.4253,-2.4264,-2.4365,-2.4369,-2.4299,-2.4347,-2.4355,-2.438,-2.4418,-2.4422,-2.439,-2.4388,-2.4452,-2.4459,-2.4466,-2.4534,-2.4486,-2.449,-2.4492,-2.4648,-2.465,-2.4652,0,0,0,0,0,0,-2.425,-2.4262,-2.4362,-2.4316,-2.4329,-2.4351,-2.4379,-2.4382,-2.4399,-2.4424,-2.4428,-2.4403,-2.4451,-2.446,-2.4511,-2.4536,-2.4492,-2.4495,-2.4646,-2.4649,-2.4651,-2.4673,0,0,0,0,0,0,-2.4246,-2.4261,-2.4284,-2.4317,-2.4331,-2.4407,-2.4381,-2.4384,-2.4406,-2.4404,-2.4438,-2.4442,-2.445,-2.4505,-2.4515,-2.4541,-2.4499,-2.4644,-2.4647,-2.465,-2.467,-2.4676,-2.4681,0,0,0,0,0,-2.4241,-2.4288,-2.4285,-2.4297,-2.4361,-2.4409,-2.4417,-2.4425,-2.4409,-2.4431,-2.4447,-2.4441,-2.4532,-2.451,-2.4522,-2.455,-2.4642,-2.4646,-2.465,-2.4668,-2.4675,-2.4681,0,0,0,0,0,0,-2.4258,-2.4293,-2.429,-2.4349,-2.4376,-2.4407,-2.4436,-2.4433,-2.4465,-2.4462,-2.4471,-2.4478,-2.4529,-2.4545,-2.452,-2.4607,-2.4585,-2.4591,-2.4594,-2.4602,-2.4607,-2.4601,-2.4502,0,0,0,0,0,-2.4269,-2.4305,-2.4333,-2.4383,-2.4396,-2.4414,-2.4435,-2.4439,-2.4467,-2.4478,-2.4498,-2.4525,-2.4559,-2.4581,-2.4615,-2.4673,-2.4678,-2.4698,-2.4703,-2.4708,-2.4712,-2.4741,-2.4749,-2.4665,-2.4665,-2.4665,0,0,-2.4291,-2.4315,-2.4337,-2.4387,-2.4408,-2.4444,-2.4424,-2.4464,-2.449,-2.4484,-2.4533,-2.4548,-2.4578,-2.4632,-2.4657,-2.4647,-2.4737,-2.4713,-2.4716,-2.4718,-2.4746,-2.4754,-2.4761,-2.4667,-2.4667,-2.4667,0,0,-2.435,-2.4373,-2.4415,-2.4436,-2.4468,-2.4479,-2.4489,-2.452,-2.453,-2.4579,-2.4575,-2.4606,-2.4666,-2.4686,-2.4705,-2.4769,-2.4763,-2.4779,-2.4808,-2.4836,-2.4842,-2.4848,-2.4868,-2.4875,-2.4784,-2.4785,-2.4785,0,-2.4374,-2.4428,-2.4437,-2.4476,-2.4497,-2.4494,-2.4535,-2.4555,-2.4597,-2.461,-2.4598,-2.4671,-2.4692,-2.4749,-2.4764,-2.478,-2.479,-2.4775,-2.4841,-2.4847,-2.4852,-2.4871,-2.4879,-2.4786,-2.4786,-2.4786,-2.4786,0,-2.4454,-2.4492,-2.4523,-2.4561,-2.4586,-2.4627,-2.464,-2.4663,-2.4665,-2.4676,-2.4725,-2.4749,-2.4785,-2.48,-2.4802,-2.4856,-2.4849,-2.4839,-2.4817,-2.4862,-2.4879,-2.4887,-2.4788,-2.4788,-2.4787,-2.4787,0,0,-2.4526,-2.4568,-2.4579,-2.4595,-2.4629,-2.4658,-2.4697,-2.4733,-2.4751,-2.478,-2.4811,-2.4861,-2.4851,-2.4871,-2.4876,-2.4901,-2.4946,-2.4887,-2.4888,-2.4895,-2.5004,-2.5009,-2.5018,-2.4943,-2.4944,-2.4946,-2.5,0,-2.4586,-2.4656,-2.4664,-2.4725,-2.4758,-2.4754,-2.4788,-2.4812,-2.4823,-2.4852,-2.4865,-2.4899,-2.4885,-2.4897,-2.4921,-2.4935,-2.4967,-2.4932,-2.497,-2.4971,-2.4961,-2.5028,-2.5035,-2.5085,-2.5008,-2.5009,-2.501,0,-2.4666,-2.4695,-2.476,-2.4786,-2.48,-2.4831,-2.4862,-2.4891,-2.4917,-2.4923,-2.4945,-2.4946,-2.4984,-2.4961,-2.5013,-2.4988,-2.5005,-2.5014,-2.5016,-2.5018,-2.4992,-2.5029,-2.5102,-2.5108,-2.5021,-2.5021,-2.502,0,-2.4708,-2.4764,-2.4809,-2.4823,-2.4856,-2.4877,-2.4892,-2.4916,-2.4936,-2.4963,-2.4976,-2.5008,-2.5025,-2.5048,-2.5057,-2.504,-2.5107,-2.5086,-2.5111,-2.5111,-2.5124,-2.5123,-2.5198,-2.5139,-2.5139,-2.5138,-2.5138,0,-2.4773,-2.4812,-2.4828,-2.4855,-2.4898,-2.4906,-2.4948,-2.4961,-2.4982,-2.5011,-2.501,-2.5037,-2.5047,-2.5075,-2.5082,-2.5122,-2.513,-2.5135,-2.5136,-2.5134,-2.5133,-2.5143,-2.5139,-2.514,-2.514,-2.514,-2.5139,0,-2.4828,-2.484,-2.4888,-2.4915,-2.4922,-2.4952,-2.4974,-2.5,-2.501,-2.5047,-2.5055,-2.5072,-2.5104,-2.5115,-2.5155,-2.5159,-2.5205,-2.5204,-2.5196,-2.5196,-2.522,-2.5216,-2.5302,-2.5312,-2.5249,-2.5249,-2.525,0,-2.4867,-2.4897,-2.4926,-2.4945,-2.496,-2.4991,-2.5011,-2.5019,-2.504,-2.507,-2.5091,-2.5123,-2.5149,-2.5201,-2.5216,-2.5246,-2.5244,-2.5272,-2.5248,-2.5244,-2.5241,-2.5238,-2.524,-2.5276,-2.5276,-2.5277,-2.5277,0,-2.4935,-2.4939,-2.4968,-2.4999,-2.5022,-2.5047,-2.507,-2.5085,-2.5097,-2.512,-2.5152,-2.5173,-2.5212,-2.5243,-2.5273,-2.5286,-2.5283,-2.5285,-2.5292,-2.5289,-2.5282,-2.5283,-2.5206,-2.5282,-2.5282,-2.5281,-2.5281,-2.5281,-2.4982,-2.5007,-2.503,-2.5062,-2.508,-2.5101,-2.5126,-2.5139,-2.5166,-2.5199,-2.5202,-2.5237,-2.5259,-2.5299,-2.5314,-2.534,-2.5332,-2.5343,-2.5345,-2.5347,-2.5347,-2.5279,-2.5346,-2.5345,-2.5345,-2.5345,-2.5345,0,-2.5048,-2.5062,-2.5091,-2.5123,-2.5147,-2.5142,-2.5167,-2.5187,-2.5218,-2.5239,-2.5264,-2.53,-2.533,-2.5346,-2.5375,-2.5393,-2.5392,-2.54,-2.5398,-2.54,-2.5354,-2.5344,-2.54,-2.54,-2.54,-2.54,-2.54,-2.54,-2.5085,-2.5126,-2.5132,-2.5181,-2.5195,-2.5229,-2.5243,-2.5262,-2.5279,-2.5319,-2.5343,-2.5354,-2.5372,-2.5402,-2.5428,-2.5432,-2.5442,-2.545,-2.5453,-2.541,-2.5404,-2.5398,-2.5389,-2.5453,-2.5453,-2.5496,-2.5497,-2.5497]},{"header":{"parameterUnit":"m.s-1","parameterCategory":1,"la1":30.2991,"la2":30.254,"lo1":-89.0895,"lo2":-89.0444,"dy":0.0017,"dx":0.0017,"nx":28,"ny":28,"refTime":"2025-12-12T09:00:00:Z","depth":0,"parameterNumber":3,"parameterNumberName":"V-component_of_WINDS"},"data":[0,0,0,0,0,0,0,0,0,0,0,0,0,0,0,0,0,0,0,0,0,0,0,0,0,0,0,0,0,0,0,0,0,0,0,0,0,0,0,0,0,0,0,0,0,0,0,0,0,0,0,0,0,0,0,0,0,0,-0.4555,-0.4553,0,-0.4412,-0.4411,-0.4409,-0.4319,-0.4319,-0.4318,-0.4318,-0.417,-0.4166,-0.4163,0,0,0,0,0,0,0,0,0,0,0,0,0,-0.4745,-0.4742,-0.4555,-0.4553,-0.4551,-0.4413,-0.4411,-0.4409,-0.4319,-0.4319,-0.4318,-0.4318,-0.4171,-0.4167,-0.4162,0,0,0,0,0,0,0,0,0,0,0,0,0,-0.4638,-0.4741,-0.4555,-0.449,-0.4483,-0.4413,-0.4411,-0.4408,-0.4319,-0.4319,-0.4318,-0.4317,-0.4172,-0.4167,-0.4162,-0.4145,0,0,-0.4146,-0.4144,0,0,0,0,0,0,0,0,-0.4644,-0.4631,-0.4501,-0.4494,-0.4486,-0.4383,-0.4423,-0.432,-0.432,-0.4381,-0.4318,-0.4317,-0.4241,-0.423,-0.4205,-0.4138,-0.4132,-0.4145,-0.4142,-0.414,-0.4139,0,0,0,0,0,0,0,-0.4652,-0.4637,-0.4498,-0.45,-0.449,-0.4466,-0.445,-0.4403,-0.4317,-0.4376,-0.4369,-0.4354,-0.4237,-0.421,-0.4201,-0.413,-0.4146,-0.4141,-0.4138,-0.4136,-0.4038,-0.4039,0,0,0,0,0,0,-0.467,-0.4644,-0.4503,-0.4494,-0.4565,-0.4464,-0.4446,-0.4417,-0.4317,-0.4302,-0.4354,-0.435,-0.4219,-0.4207,-0.4195,-0.4167,-0.414,-0.4135,-0.4132,-0.4038,-0.4038,-0.4039,0,0,0,0,0,0,-0.4674,-0.4658,-0.4509,-0.4567,-0.4546,-0.4461,-0.4429,-0.4414,-0.4388,-0.4301,-0.4285,-0.4344,-0.4218,-0.4203,-0.4158,-0.4161,-0.4133,-0.4128,-0.4037,-0.4038,-0.4039,-0.4112,0,0,0,0,0,0,-0.468,-0.4661,-0.4655,-0.4568,-0.4543,-0.4475,-0.4429,-0.4412,-0.4379,-0.4372,-0.4287,-0.4272,-0.4217,-0.4166,-0.4153,-0.4153,-0.4124,-0.4037,-0.4038,-0.4039,-0.4109,-0.4115,-0.4121,0,0,0,0,0,-0.4687,-0.4681,-0.4655,-0.4638,-0.4534,-0.4475,-0.4461,-0.4399,-0.438,-0.4372,-0.4316,-0.4274,-0.4163,-0.4162,-0.4146,-0.4145,-0.4036,-0.4037,-0.4038,-0.4106,-0.4114,-0.4121,0,0,0,0,0,0,-0.477,-0.4668,-0.4638,-0.4604,-0.4549,-0.446,-0.4449,-0.4409,-0.4358,-0.4354,-0.4277,-0.4258,-0.4221,-0.4178,-0.418,-0.4122,-0.4094,-0.4092,-0.4151,-0.4158,-0.4164,-0.4174,-0.412,0,0,0,0,0,-0.4784,-0.4746,-0.4659,-0.4637,-0.4611,-0.4535,-0.4507,-0.4463,-0.4403,-0.4379,-0.432,-0.4262,-0.4214,-0.4183,-0.4134,-0.4102,-0.4081,-0.4094,-0.4099,-0.4105,-0.4104,-0.4081,-0.4085,-0.4043,-0.4043,-0.4043,0,0,-0.4813,-0.4753,-0.4734,-0.4652,-0.4604,-0.4565,-0.4516,-0.4477,-0.4446,-0.4373,-0.4327,-0.4281,-0.4211,-0.4172,-0.4152,-0.4136,-0.411,-0.4106,-0.4111,-0.4107,-0.4083,-0.4087,-0.409,-0.4044,-0.4044,-0.4044,0,0,-0.4846,-0.4797,-0.4772,-0.4725,-0.4654,-0.4603,-0.4597,-0.4514,-0.4481,-0.4433,-0.4377,-0.4339,-0.4258,-0.4209,-0.4175,-0.4186,-0.4145,-0.4172,-0.4203,-0.4182,-0.4185,-0.4187,-0.419,-0.4192,-0.4172,-0.4172,-0.4172,0,-0.489,-0.483,-0.4764,-0.4728,-0.4693,-0.4624,-0.4597,-0.4555,-0.4471,-0.4447,-0.443,-0.4325,-0.4274,-0.4221,-0.4224,-0.4199,-0.4188,-0.4182,-0.419,-0.4192,-0.4193,-0.4195,-0.4196,-0.4176,-0.4175,-0.4175,-0.4175,0,-0.4888,-0.4847,-0.4835,-0.4756,-0.4719,-0.4688,-0.4615,-0.4585,-0.4544,-0.4495,-0.4446,-0.4381,-0.4317,-0.4301,-0.4261,-0.4242,-0.4234,-0.4205,-0.4175,-0.4202,-0.4202,-0.4202,-0.4181,-0.418,-0.4178,-0.4178,0,0,-0.4969,-0.4853,-0.4849,-0.4812,-0.4727,-0.4693,-0.4657,-0.4595,-0.457,-0.4514,-0.4481,-0.4412,-0.4384,-0.4344,-0.4298,-0.4279,-0.429,-0.4251,-0.4249,-0.426,-0.4263,-0.4285,-0.4287,-0.4263,-0.4263,-0.4262,-0.4269,0,-0.4988,-0.4922,-0.486,-0.4816,-0.4776,-0.4709,-0.4678,-0.4622,-0.4574,-0.4531,-0.4478,-0.443,-0.4397,-0.4372,-0.4351,-0.4294,-0.429,-0.4292,-0.4229,-0.4228,-0.4248,-0.4288,-0.4311,-0.432,-0.4268,-0.4268,-0.4268,0,-0.5001,-0.4948,-0.49,-0.4817,-0.4798,-0.4771,-0.4707,-0.4668,-0.4602,-0.4568,-0.4523,-0.4474,-0.4431,-0.4406,-0.4345,-0.4348,-0.4318,-0.4286,-0.4284,-0.4275,-0.425,-0.4279,-0.4322,-0.4323,-0.4268,-0.4268,-0.4268,0,-0.5064,-0.498,-0.494,-0.491,-0.4813,-0.4795,-0.4753,-0.4686,-0.4652,-0.4596,-0.4572,-0.4512,-0.4478,-0.4432,-0.4366,-0.4355,-0.4311,-0.4281,-0.428,-0.4282,-0.4274,-0.4275,-0.4312,-0.4257,-0.4257,-0.4257,-0.4257,0,-0.5091,-0.5063,-0.4966,-0.4941,-0.4908,-0.4836,-0.4805,-0.4757,-0.4698,-0.4661,-0.46,-0.4566,-0.4482,-0.4438,-0.4387,-0.4343,-0.4328,-0.4298,-0.4285,-0.4303,-0.4307,-0.4283,-0.428,-0.4257,-0.4257,-0.4257,-0.4257,0,-0.5155,-0.5089,-0.504,-0.4952,-0.4929,-0.4908,-0.4831,-0.4804,-0.4752,-0.4706,-0.4691,-0.4609,-0.4554,-0.4484,-0.4407,-0.4372,-0.4333,-0.4313,-0.4355,-0.4347,-0.435,-0.435,-0.4371,-0.437,-0.4317,-0.4318,-0.4319,0,-0.5176,-0.5153,-0.5063,-0.5034,-0.4994,-0.4949,-0.4913,-0.4841,-0.4806,-0.4728,-0.4709,-0.4649,-0.4597,-0.4512,-0.4444,-0.4384,-0.4361,-0.4373,-0.4352,-0.437,-0.436,-0.4361,-0.4358,-0.4378,-0.4379,-0.438,-0.4381,0,-0.522,-0.5188,-0.514,-0.5079,-0.5039,-0.4987,-0.4933,-0.4913,-0.4829,-0.4793,-0.4735,-0.4695,-0.4616,-0.4556,-0.4487,-0.4442,-0.4396,-0.4388,-0.4384,-0.4402,-0.4427,-0.4412,-0.4369,-0.4387,-0.4387,-0.4386,-0.4386,-0.4386,-0.5262,-0.5238,-0.517,-0.5118,-0.5069,-0.502,-0.4989,-0.4933,-0.4884,-0.4814,-0.4774,-0.4718,-0.4649,-0.4552,-0.4508,-0.4462,-0.4445,-0.444,-0.4439,-0.4438,-0.4444,-0.4436,-0.4449,-0.4449,-0.4448,-0.4448,-0.4448,0,-0.5302,-0.5255,-0.5207,-0.5133,-0.5091,-0.5053,-0.499,-0.4957,-0.4909,-0.4849,-0.4799,-0.4733,-0.4674,-0.4602,-0.4538,-0.4514,-0.4492,-0.45,-0.45,-0.449,-0.4463,-0.4472,-0.4519,-0.4519,-0.4519,-0.4519,-0.4519,-0.4519,-0.5318,-0.5274,-0.5234,-0.5165,-0.5117,-0.5063,-0.503,-0.4983,-0.4935,-0.4863,-0.4814,-0.4768,-0.4702,-0.4632,-0.4576,-0.4556,-0.4535,-0.4549,-0.4523,-0.4498,-0.4492,-0.4486,-0.4494,-0.4545,-0.4545,-0.4553,-0.4553,-0.4553]}]]